Total_Precipitation_Accumulation
0.00 0.00 0.00 0.00 0.00 0.00 0.00 0.00 0.00 0.00 0.00 0.00 0.00 0.00 0.00 0.00 0.00 0.00 0.00 0.00 0.00 0.00 0.01 0.01 0.02 0.04 0.06 0.09 0.11 0.12 0.12 0.11 0.12 0.12 0.12 0.11 0.10 0.09 0.08 0.06 0.06 0.05 0.04
0.00 0.00 0.00 0.00 0.00 0.00 0.00 0.00 0.00 0.00 0.00 0.00 0.00 0.00 0.00 0.00 0.00 0.00 0.00 0.00 0.00 0.00 0.00 0.00 0.01 0.03 0.05 0.07 0.10 0.12 0.12 0.13 0.13 0.14 0.15 0.15 0.16 0.16 0.16 0.15 0.14 0.12 0.10
0.00 0.00 0.00 0.00 0.00 0.00 0.00 0.00 0.00 0.00 0.00 0.00 0.00 0.00 0.00 0.00 0.00 0.00 0.00 0.00 0.00 0.00 0.00 0.00 0.01 0.02 0.03 0.04 0.06 0.08 0.10 0.13 0.14 0.16 0.17 0.18 0.20 0.21 0.23 0.24 0.24 0.24 0.22
0.00 0.00 0.00 0.00 0.00 0.00 0.00 0.00 0.00 0.00 0.00 0.00 0.00 0.00 0.00 0.00 0.00 0.00 0.00 0.00 0.00 0.00 0.00 0.00 0.01 0.01 0.01 0.02 0.03 0.05 0.08 0.10 0.12 0.13 0.15 0.17 0.19 0.21 0.25 0.29 0.32 0.34 0.36
0.00 0.00 0.00 0.00 0.00 0.00 0.00 0.00 0.00 0.00 0.00 0.00 0.00 0.00 0.00 0.00 0.00 0.00 0.00 0.00 0.00 0.00 0.00 0.00 0.00 0.00 0.01 0.01 0.01 0.03 0.06 0.08 0.10 0.12 0.13 0.15 0.17 0.20 0.24 0.28 0.33 0.38 0.45
0.00 0.00 0.00 0.00 0.00 0.00 0.00 0.00 0.00 0.00 0.00 0.00 0.00 0.00 0.00 0.00 0.00 0.00 0.00 0.00 0.00 0.00 0.00 0.00 0.00 0.00 0.00 0.01 0.02 0.02 0.04 0.06 0.08 0.10 0.12 0.14 0.16 0.19 0.22 0.27 0.32 0.39 0.50
0.00 0.00 0.00 0.00 0.00 0.00 0.00 0.00 0.00 0.00 0.00 0.00 0.00 0.01 0.00 0.00 0.00 0.00 0.00 0.00 0.00 0.00 0.00 0.00 0.00 0.01 0.01 0.01 0.02 0.02 0.02 0.04 0.06 0.09 0.12 0.14 0.17 0.20 0.24 0.29 0.35 0.41 0.49
0.00 0.00 0.00 0.00 0.00 0.00 0.00 0.00 0.00 0.00 0.00 0.00 0.01 0.03 0.01 0.00 0.00 0.00 0.00 0.00 0.00 0.00 0.00 0.00 0.01 0.01 0.01 0.02 0.01 0.01 0.01 0.02 0.04 0.09 0.14 0.17 0.19 0.23 0.27 0.33 0.40 0.45 0.50
0.00 0.00 0.00 0.00 0.00 0.00 0.00 0.00 0.00 0.01 0.01 0.01 0.01 0.04 0.05 0.03 0.02 0.01 0.00 0.00 0.00 0.00 0.00 0.00 0.00 0.00 0.01 0.01 0.01 0.01 0.01 0.02 0.03 0.07 0.14 0.20 0.24 0.29 0.34 0.39 0.43 0.47 0.52
0.00 0.00 0.00 0.00 0.00 0.00 0.00 0.00 0.01 0.02 0.03 0.03 0.02 0.03 0.05 0.06 0.07 0.05 0.02 0.01 0.00 0.00 0.00 0.00 0.00 0.00 0.00 0.01 0.01 0.01 0.02 0.03 0.05 0.07 0.13 0.22 0.30 0.37 0.45 0.51 0.54 0.58 0.59
0.00 0.00 0.00 0.00 0.00 0.00 0.01 0.01 0.02 0.03 0.04 0.05 0.06 0.06 0.06 0.07 0.09 0.11 0.07 0.03 0.01 0.00 0.00 0.00 0.00 0.00 0.00 0.01 0.01 0.02 0.03 0.06 0.08 0.10 0.17 0.27 0.35 0.45 0.56 0.66 0.71 0.72 0.72
0.00 0.00 0.00 0.00 0.00 0.00 0.01 0.01 0.02 0.04 0.05 0.06 0.08 0.09 0.11 0.12 0.10 0.11 0.10 0.06 0.04 0.01 0.00 0.00 0.00 0.00 0.01 0.02 0.02 0.03 0.04 0.06 0.08 0.11 0.19 0.31 0.39 0.48 0.59 0.71 0.80 0.84 0.87
0.00 0.00 0.00 0.00 0.00 0.00 0.01 0.01 0.02 0.03 0.04 0.06 0.07 0.09 0.11 0.13 0.13 0.14 0.15 0.10 0.07 0.04 0.02 0.01 0.02 0.02 0.03 0.04 0.04 0.04 0.04 0.05 0.07 0.10 0.16 0.28 0.37 0.41 0.45 0.54 0.70 0.82 0.91
0.00 0.00 0.00 0.00 0.00 0.00 0.01 0.01 0.02 0.03 0.05 0.07 0.08 0.10 0.13 0.14 0.16 0.17 0.19 0.20 0.18 0.10 0.06 0.03 0.04 0.05 0.05 0.06 0.06 0.07 0.06 0.06 0.07 0.10 0.13 0.19 0.25 0.28 0.33 0.40 0.50 0.62 0.74
0.00 0.00 0.00 0.00 0.00 0.00 0.00 0.01 0.02 0.03 0.04 0.06 0.08 0.10 0.12 0.13 0.15 0.17 0.20 0.24 0.27 0.21 0.11 0.06 0.05 0.04 0.05 0.06 0.06 0.08 0.08 0.07 0.09 0.11 0.12 0.14 0.17 0.20 0.23 0.26 0.33 0.40 0.49
0.00 0.00 0.00 0.00 0.00 0.00 0.00 0.00 0.01 0.01 0.02 0.03 0.05 0.07 0.09 0.10 0.11 0.14 0.16 0.19 0.23 0.26 0.17 0.06 0.05 0.05 0.07 0.07 0.07 0.10 0.09 0.11 0.12 0.13 0.13 0.15 0.16 0.17 0.18 0.20 0.23 0.27 0.32
0.00 0.00 0.00 0.00 0.00 0.00 0.00 0.00 0.00 0.00 0.01 0.02 0.03 0.05 0.07 0.08 0.10 0.10 0.12 0.14 0.17 0.22 0.21 0.08 0.06 0.09 0.10 0.09 0.10 0.12 0.11 0.11 0.10 0.11 0.14 0.16 0.17 0.19 0.21 0.21 0.22 0.24 0.26
0.00 0.00 0.00 0.00 0.00 0.00 0.00 0.00 0.00 0.00 0.00 0.00 0.01 0.03 0.05 0.07 0.08 0.09 0.11 0.12 0.14 0.17 0.24 0.19 0.11 0.12 0.12 0.14 0.17 0.18 0.16 0.14 0.12 0.12 0.16 0.19 0.21 0.23 0.24 0.25 0.27 0.29 0.31
0.00 0.00 0.00 0.00 0.00 0.00 0.00 0.00 0.00 0.00 0.00 0.00 0.00 0.01 0.03 0.05 0.06 0.06 0.07 0.10 0.13 0.18 0.25 0.28 0.20 0.16 0.15 0.15 0.18 0.18 0.18 0.16 0.15 0.16 0.20 0.22 0.24 0.25 0.27 0.30 0.32 0.35 0.37
0.00 0.00 0.00 0.00 0.00 0.00 0.00 0.00 0.00 0.00 0.00 0.00 0.00 0.01 0.01 0.02 0.02 0.03 0.06 0.10 0.16 0.20 0.23 0.28 0.26 0.21 0.21 0.19 0.21 0.18 0.16 0.15 0.16 0.17 0.21 0.25 0.28 0.32 0.34 0.37 0.40 0.42 0.44
0.00 0.00 0.00 0.00 0.00 0.00 0.00 0.00 0.00 0.00 0.00 0.00 0.00 0.00 0.00 0.01 0.01 0.04 0.08 0.13 0.20 0.27 0.32 0.37 0.37 0.33 0.30 0.25 0.21 0.22 0.26 0.26 0.25 0.23 0.24 0.27 0.32 0.37 0.40 0.42 0.45 0.46 0.47
0.00 0.00 0.00 0.00 0.00 0.00 0.00 0.00 0.00 0.00 0.00 0.00 0.00 0.00 0.00 0.00 0.01 0.04 0.09 0.17 0.30 0.40 0.48 0.50 0.50 0.45 0.36 0.31 0.31 0.35 0.42 0.49 0.44 0.29 0.32 0.34 0.36 0.43 0.43 0.45 0.51 0.54 0.54
0.00 0.00 0.00 0.00 0.00 0.00 0.00 0.00 0.00 0.00 0.00 0.00 0.00 0.00 0.01 0.01 0.02 0.03 0.06 0.16 0.25 0.33 0.40 0.44 0.45 0.37 0.34 0.33 0.41 0.52 0.56 0.60 0.51 0.36 0.42 0.48 0.41 0.43 0.44 0.48 0.57 0.57 0.53
0.00 0.00 0.00 0.00 0.00 0.00 0.00 0.00 0.00 0.00 0.00 0.00 0.00 0.01 0.01 0.01 0.02 0.06 0.12 0.17 0.16 0.15 0.20 0.26 0.30 0.32 0.35 0.41 0.51 0.66 0.76 0.80 0.68 0.53 0.50 0.54 0.41 0.38 0.40 0.44 0.51 0.50 0.45
0.00 0.00 0.00 0.00 0.00 0.00 0.00 0.00 0.01 0.00 0.00 0.00 0.00 0.01 0.03 0.03 0.05 0.14 0.22 0.26 0.20 0.13 0.15 0.22 0.30 0.34 0.35 0.38 0.45 0.66 0.83 0.90 0.78 0.55 0.47 0.55 0.51 0.47 0.45 0.42 0.44 0.48 0.46
0.00 0.00 0.00 0.00 0.00 0.00 0.00 0.00 0.01 0.02 0.02 0.02 0.02 0.02 0.03 0.05 0.10 0.19 0.24 0.28 0.24 0.17 0.19 0.23 0.26 0.27 0.26 0.30 0.39 0.54 0.88 1.15 0.99 0.72 0.50 0.55 0.57 0.58 0.64 0.47 0.42 0.45 0.44